Weather History for Norfolk, NE

Change the Weather History Date:

Tuesday, June 5, 2012

  Actual Average Record
Temperature  
Mean Temperature 71 °F 67 °F  
Max Temperature 88 °F 79 °F 103 °F (1933)
Min Temperature 54 °F 55 °F 36 °F (1910)
Degree Days  
Heating Degree Days 0 2  
Month to date heating degree days 12 11  
Since 1 June heating degree days 12 11  
Since 1 July heating degree days 5452 6624  
Cooling Degree Days 6 4  
Month to date cooling degree days 25 18  
Year to date cooling degree days 177 79  
Since 1 June cooling degree days 25 18  
Growing Degree Days 21 (Base 50)    
Moisture  
Dew Point 53 °F    
Average Humidity 58    
Maximum Humidity 86    
Minimum Humidity 29    
Precipitation  
Precipitation 0.00 in 0.15 in 5.39 in (1974)
Month to date precipitation 0.02 0.74  
Year to date precipitation 9.98 10.44  
Snow  
Snow 0.00 in 0.00 in - ()
Month to date snowfall 0.0 0.0  
Since 1 July snowfall 15.3 30.5  
Snow Depth 0.00 in    
Sea Level Pressure  
Sea Level Pressure 29.90 in    
Wind  
Wind Speed 4 mph (ESE)    
Max Wind Speed 13 mph    
Max Gust Speed 15 mph    
Visibility 10 miles    
Events      
T = Trace of Precipitation, MM = Missing Value Source: NWS Daily Summary

Daily Weather History Graph

Daily Weather History Graph

Search for Another Location

Airport:

Trip Planner

Search our weather history database for the weather conditions in past years. The results will help you decide how hot, cold, wet, or windy it might be!

Date:

Astronomy

Jun. 05, 2012 Rise Set
Actual Time 5:54 AM CDT 9:02 PM CDT
Civil Twilight 5:21 AM CDT 9:36 PM CDT
Nautical Twilight 4:37 AM CDT 10:19 PM CDT
Astronomical Twilight 3:45 AM CDT 11:11 PM CDT
Moon 10:27 PM CDT (6/5) 7:08 AM CDT (6/5)
Length of Visible Light 16h 14m
Length of Day
15h 07m
Full, 98% of the Moon is Illuminated
Jun 5
Full
Jun 11
Last Quarter
Jun 19
New
Jun 26
First Quarter
Jul 3
Full

Hourly Weather History & Observations

Time (CDT) Temp. Heat Index Dew Point Humidity Pressure Visibility Wind Dir Wind Speed Gust Speed Precip Events Conditions
12:56 AM 64.9 °F - 51.1 °F 61% 29.93 in 10.0 mi Calm Calm - N/A   Clear
1:56 AM 57.9 °F - 51.1 °F 78% 29.93 in 10.0 mi WSW 4.6 mph - N/A   Clear
2:56 AM 55.9 °F - 51.1 °F 84% 29.92 in 10.0 mi West 3.5 mph - N/A   Clear
3:56 AM 57.0 °F - 50.0 °F 77% 29.92 in 10.0 mi WSW 3.5 mph - N/A   Clear
4:56 AM 55.9 °F - 50.0 °F 80% 29.93 in 10.0 mi West 3.5 mph - N/A   Clear
5:56 AM 57.9 °F - 48.0 °F 70% 29.93 in 10.0 mi Calm Calm - N/A   Clear
6:56 AM 61.0 °F - 53.1 °F 75% 29.95 in 10.0 mi Calm Calm - N/A   Clear
7:56 AM 66.0 °F - 53.1 °F 63% 29.94 in 10.0 mi Calm Calm - N/A   Clear
8:56 AM 71.1 °F - 52.0 °F 51% 29.95 in 10.0 mi East 3.5 mph - N/A   Clear
9:56 AM 75.0 °F - 53.1 °F 46% 29.96 in 10.0 mi Calm Calm - N/A   Clear
10:56 AM 80.1 °F 80.2 °F 55.9 °F 43% 29.94 in 10.0 mi Calm Calm - N/A   Clear
11:56 AM 82.0 °F 81.3 °F 54.0 °F 38% 29.94 in 10.0 mi East 5.8 mph - N/A   Clear
12:56 PM 84.0 °F - 52.0 °F 33% 29.92 in 10.0 mi East 6.9 mph - N/A   Clear
1:56 PM 86.0 °F - 51.1 °F 30% 29.91 in 10.0 mi North 4.6 mph - N/A   Clear
2:56 PM 84.0 °F - 50.0 °F 31% 29.89 in 10.0 mi Calm Calm - N/A   Clear
3:56 PM 88.0 °F - 52.0 °F 29% 29.88 in 10.0 mi Variable 5.8 mph - N/A   Clear
4:56 PM 87.1 °F - 52.0 °F 30% 29.87 in 10.0 mi NE 5.8 mph - N/A   Clear
5:56 PM 86.0 °F - 51.1 °F 30% 29.85 in 10.0 mi East 8.1 mph - N/A   Clear
6:56 PM 86.0 °F 84.0 °F 53.1 °F 32% 29.83 in 10.0 mi SE 6.9 mph - N/A   Clear
7:56 PM 82.0 °F 81.2 °F 53.1 °F 37% 29.82 in 10.0 mi East 3.5 mph - N/A   Clear
8:56 PM 77.0 °F - 57.9 °F 52% 29.83 in 10.0 mi ESE 6.9 mph - N/A   Clear
9:56 PM 73.9 °F - 57.9 °F 57% 29.86 in 10.0 mi ESE 6.9 mph - N/A   Clear
10:56 PM 72.0 °F - 57.0 °F 59% 29.87 in 10.0 mi SE 6.9 mph - N/A   Clear
11:56 PM 71.1 °F - 55.0 °F 57% 29.87 in 10.0 mi SSE 6.9 mph - N/A   Clear